Home   Weather   Aschaffenburg   Past weeks

Flag for Germany Past Weather in Aschaffenburg, Bavaria, Germany — Yesterday and Last 2 Weeks

Now
50 °F

Passing clouds.


Feels Like: 47 °F
Forecast: 40 / 48 °F
Wind: 8 mph from Southwest

Location: Frankfurt-M-Flughafen Airport

Current Time: Feb 27, 2017 at 1:08:39 am

Latest Report: Feb 27, 2017 at 12:50 am


Visibility: N/A

Pressure: 29.89 "Hg

Humidity: 76%

Dew Point: 43 °F

Location of AschaffenburgLocation

Past Weather in Aschaffenburg — Graph

°F

Aschaffenburg Temperature Yesterday

Maximum temperature yesterday: 57 °F (at 3:20 pm)
Minimum temperature yesterday: 36 °F (at 4:20 am)
Average temperature yesterday: 47 °F

High & Low Weather Summary for the Past Weeks

 TemperatureHumidityPressure
High57 °F (Feb 26, 3:20 pm)100% (Feb 16, 3:50 am)30.60 "Hg (Feb 16, 3:50 am)
Low25 °F (Feb 15, 6:20 am)36% (Feb 26, 3:50 pm)29.42 "Hg (Feb 23, 5:20 pm)
Average43 °F75%30.16 "Hg
* Reported Feb 11 11:20 pm — Feb 26 11:50 pm, Aschaffenburg, Weather by CustomWeather, © 2017

Note: Actual official high and low records may vary slightly from our data, if they occured in-between our weather recording intervals... More about our weather records

Advertising

Aschaffenburg Weather History for the Previous 24 Hours

Scroll right to see more
 ConditionsComfort  
Time TempWeatherWind HumidityBarometerVisibility
11:50 pm
Sun, Feb 26
52 °FPassing clouds.8 mph72%29.89 "HgN/A
11:20 pm52 °FPassing clouds.12 mph72%29.89 "HgN/A
10:50 pm52 °FPassing clouds.10 mph62%29.92 "HgN/A
10:20 pm52 °FPassing clouds.9 mph58%29.92 "HgN/A
9:50 pm52 °FPassing clouds.10 mph54%29.92 "HgN/A
9:20 pm52 °FPassing clouds.12 mph54%29.92 "HgN/A
8:50 pm52 °FPartly cloudy.10 mph54%29.92 "HgN/A
8:20 pm54 °FPartly cloudy.13 mph51%29.92 "HgN/A
7:50 pm54 °FPassing clouds.12 mph51%29.92 "HgN/A
7:20 pm54 °FPassing clouds.12 mph51%29.92 "HgN/A
6:50 pm54 °FPassing clouds.12 mph47%29.92 "HgN/A
6:20 pm55 °FClear.12 mph44%29.92 "Hg10 mi
5:50 pm55 °FSunny.15 mph44%29.92 "Hg10 mi
5:20 pm55 °FSunny.15 mph41%29.89 "Hg10 mi
4:50 pm57 °FSunny.20 mph39%29.89 "Hg10 mi
4:20 pm57 °FSunny.15 mph39%29.89 "Hg10 mi
3:50 pm57 °FSunny.16 mph36%29.89 "Hg10 mi
3:20 pm57 °FSunny.16 mph39%29.92 "Hg10 mi
2:50 pm55 °FSunny.22 mph41%29.92 "Hg10 mi
2:20 pm55 °FSunny.22 mph41%29.92 "Hg10 mi
1:50 pm55 °FSunny.22 mph44%29.95 "Hg10 mi
1:20 pm54 °FPassing clouds.17 mph51%29.95 "HgN/A
12:50 pm52 °FPassing clouds.15 mph54%29.95 "HgN/A
12:20 pm50 °FPassing clouds.16 mph58%29.98 "HgN/A
11:50 am48 °FSunny.16 mph58%29.98 "Hg10 mi
11:20 am48 °FPassing clouds.14 mph58%29.98 "HgN/A
10:50 am45 °FSunny.12 mph66%30.01 "Hg10 mi
10:20 am45 °FBroken clouds.13 mph66%29.98 "HgN/A
9:50 am43 °FBroken clouds.10 mph71%29.98 "HgN/A
9:20 am41 °FBroken clouds.12 mph76%29.98 "HgN/A
8:50 am41 °FLight rain. Partly sunny.10 mph76%29.98 "HgN/A
8:20 am39 °FLight rain. Partly sunny.8 mph81%29.98 "HgN/A
7:50 am39 °FBroken clouds.3 mph75%30.01 "HgN/A
7:20 am39 °FPartly sunny.3 mph75%29.98 "HgN/A
6:50 am39 °FLight rain. Passing clouds.3 mph75%29.98 "HgN/A
6:20 am37 °FPassing clouds.5 mph81%30.01 "HgN/A
5:50 am37 °FPassing clouds.7 mph81%29.98 "HgN/A
5:20 am37 °FClear.8 mph81%29.98 "Hg10 mi
4:50 am37 °FClear.7 mph81%30.01 "Hg10 mi
4:20 am36 °FClear.5 mph81%30.01 "Hg10 mi
3:50 am37 °FClear.3 mph75%30.01 "Hg10 mi
3:20 am37 °FClear.6 mph75%30.01 "Hg10 mi
2:50 am37 °FClear.7 mph81%30.01 "Hg10 mi
2:20 am37 °FClear.5 mph81%30.04 "Hg10 mi
1:50 am39 °FClear.3 mph75%30.04 "Hg10 mi
1:20 am39 °FClear.3 mph75%30.04 "Hg10 mi
Weather by CustomWeather, © 2017

See weather overviewHow to use our weather pages